Regional Weather Roundup
Issued by NWS San Diego, CA

Home | Current Version | Previous Version | Text Only | Print | Product List | Glossary On
Versions: 1 2 3 4 5 6 7 8 9 10 11 12 13 14 15 16 17 18 19 20 21 22 23 24 25 26 27 28 29 30 31 32 33 34 35 36 37 38 39 40 41 42 43 44 45 46 47 48 49 50
000
ASUS46 KSGX 310510
RWRSGX

SAN DIEGO HOURLY WEATHER ROUNDUP
NATIONAL WEATHER SERVICE SAN DIEGO CA
1000 PM PDT WED JUL 30 2014

NOTE: "FAIR" INDICATES FEW OR NO CLOUDS BELOW 12,000 FEET WITH NO
SIGNIFICANT WEATHER AND/OR OBSTRUCTIONS TO VISIBILITY.

CAZ042-043-060-061-PZZ750-775-310600-

GREATER SAN DIEGO AREA

CITY           SKY/WX    TMP DP  RH WIND       PRES   REMARKS
LINDBERGH FLD  PTCLDY    73  67  81 NW7       29.95R
POINT LOMA       N/A     68  65  89 NW12        N/A
NATIONAL CITY    N/A     73  69  87 CALM      29.95R
CHULA VISTA      N/A     73  68  86 W3        29.88R
IMPERIAL BEACH PTCLDY    71  68  90 W7        29.95R
BROWN FIELD    CLEAR     69  65  86 SW3       29.96R
MIRAMAR MCAS   PTCLDY    70  65  84 NW6       29.95R
MONTGOMERY FLD CLEAR     72  65  78 NW5       29.95R

$$

NORTH SAN DIEGO COUNTY

CITY           SKY/WX    TMP DP  RH WIND       PRES   REMARKS
CAMP PENDLETON PTCLDY    71  63  75 CALM      29.93S
OCEANSIDE AP   CLEAR     71  66  84 NW3       29.93R
VISTA            N/A     72  66  82 CALM      29.92R
CARLSBAD       PTCLDY    72  67  84 CALM      29.93S
DEL MAR          N/A     70  68  93 CALM      29.96S
LA JOLLA SCRIP   N/A     70  69  95 W2        29.92R
FALLBROOK        N/A     71  68  92 CALM      29.94R
ESCONDIDO        N/A     75  64  69 W3        29.95S
SAN MARCOS       N/A     73  66  79 CALM      29.91S
POWAY            N/A     73  65  77 CALM      29.94R
R. PENASQUITOS   N/A     71  67  87 CALM      29.94R

$$

EAST SAN DIEGO COUNTY

CITY           SKY/WX    TMP DP  RH WIND       PRES   REMARKS
RAMONA         CLEAR     73  58  59 W5        29.98S
SANTEE LAKES     N/A     73  64  71 CALM      29.94R
GILLESPIE FLD  FAIR      73  61  64 W6        29.96S
LA MESA          N/A     74  64  72 W1        29.88R
JAMUL            N/A     72  64  75 CALM      29.92R
DESCANSO N       N/A     75  52  45 CALM      29.78S
MT. LAGUNA OBS   N/A     73  40  30 NW2       29.82S
CAMPO            N/A     74  57  55 SW5       30.00R

$$

ORANGE COUNTY AND THE LOS ANGELES BASIN

CITY           SKY/WX    TMP DP  RH WIND       PRES   REMARKS
JOHN WAYNE AP  PTCLDY    74  65  73 SW5       29.93R
LAGUNA BEACH     N/A     71  66  83 CALM      29.90R
LAKE FOREST FR   N/A     73  57  58 CALM      29.83R
SANTA ANA        N/A     75  67  76 CALM      29.88R
HUNTINGTON BCH   N/A     69  66  90 W3        29.95R
LOS ALAMITOS   PTCLDY    71  65  81 S5        29.93R
FULLERTON      CLEAR     77  57  50 CALM      29.92R
LONG BEACH     CLEAR     73  63  70 CALM      29.93R
L.A. AP        CLEAR     69  64  84 S5        29.93R
L.A. DOWNTOWN  CLEAR     71  62  73 CALM      29.93R

$$

THE INLAND EMPIRE

CITY           SKY/WX    TMP DP  RH WIND       PRES   REMARKS
CORONA         CLEAR     77  60  55 W6        29.94R
CHINO          CLEAR     75  60  59 CALM      29.95R
ONTARIO        PTCLDY    80  57  45 W8        29.95R
RIVERSIDE AP   CLEAR     80  58  46 W6        29.95R
RIV CYN CREST    N/A     82  65  57 W3        29.93R
MORENO VALLEY    N/A     81  62  51 CALM        N/A
MARCH ARB      CLEAR     80  57  44 W5        29.98R
HORSETHIEF CYN   N/A     80  51  37 CALM      29.93R
PERRIS           N/A     82  57  41 W2        29.95R
MENIFEE          N/A     82  60  47 SE3       30.02R
HEMET EAST       N/A     82  49  31 CALM      29.90R
FRENCH VALLEY  FAIR      77  59  53 S6        29.98R
TEMECULA         N/A     77  60  55 S3        29.95R

$$

SAN BERNARDINO AND RIVERSIDE COUNTY MOUNTAINS

CITY           SKY/WX    TMP DP  RH WIND       PRES   REMARKS
BIG BEAR AP    CLEAR     61  43  51 CALM      30.37R
BIG BEAR SHEA    N/A     62  40  45 CALM      29.91R
ANGELUS OAKS     N/A     68  40  35 MISG      29.83R
PINE COVE        N/A     67  48  49 N3        29.92R

$$

SOUTHERN DESERT INCLUDING THE COACHELLA VALLEY

CITY           SKY/WX    TMP DP  RH WIND       PRES   REMARKS
PALM SPRINGS   CLEAR    103  46  14 NW16G26   29.79R HX  99
THOUSAND PALMS   N/A     98  50  19 NW15      29.74R HX  95
THERMAL        CLEAR    101  50  18 N16       29.72R HX  98
BLYTHE           N/A    N/A N/A N/A MISG      29.75R
IMPERIAL AP    CLEAR     99  53  21 SW9       29.74R HX  96
EL CENTRO NAS  PTCLDY   100  51  19 SW10      29.75R HX  97
YUMA AZ        PTCLDY    97  59  28 SW6       29.77R HX  96
MEXICALI       CLEAR     97  55  24 S9        29.77R HX  95

$$

UPPER DESERT

CITY           SKY/WX    TMP DP  RH WIND       PRES   REMARKS
VICTORVILLE AP CLEAR     88  46  23 W8        30.06R
HESPERIA         N/A     81  56  42 W3        29.99R
APPLE VALLEY     N/A     85  52  31 CALM      30.11R
GRAY BUTTE AP  NOT AVBL
PALMDALE       PTCLDY    87  47  24 NW10      30.04R
LANCASTER      PTCLDY    85  47  26 W7        30.02R
EDWARDS AFB    MOCLDY    88  47  24 W3        30.00R
DAGGETT        CLEAR     94  48  20 SW5       29.95R
29 PALMS N     CLEAR     96  47  18 NW18      30.00R
NEEDLES        PTCLDY   102  57  22 W6        29.78R HX 101

$$

REGIONAL REPORTS

CITY           SKY/WX    TMP DP  RH WIND       PRES   REMARKS
SANTA BARBARA  PTCLDY    68  61  78 SE3       29.90R
SANDBERG       MOCLDY    80  46  30 NW6       30.21R
MT. WILSON       N/A     72  41  33 N2          N/A
LAS VEGAS NV   PTCLDY    97  46  17 NW12G26   29.88R
PHOENIX AZ     PTCLDY   103  50  17 SW7       29.80R HX 100
TIJUANA        PTCLDY    70  63  78 CALM      29.97R
ENSENADA NW      N/A     71  32  24 E6        29.92R

$$

OFFSHORE ISLANDS

CITY           SKY/WX    TMP DP  RH WIND       PRES   REMARKS
CATALINA ARPT  CLEAR     80  46  30 NW8       30.00R
SAN NICOLAS IS CLEAR    N/A N/A N/A W21       29.95R

$$

MARINE AND OFFSHORE BUOY REPORTS

STATION/POSITION SKY/WX   TEMP    WIND        PRES    SWELL
                          AIR SEA DIR/SP/G            HT/PER/DIR
                          (F)     (DEG/KT/KT) (MB)    (FT/S/D)
TANNER BANKS               66 68  300/ 17/ 19 1014.6R   3/180/12
S CLEMENTE BASIN           70 71  300/ 12/ 14 1013.7R   3/290/ 6
SAN NICOLAS IS.               67                N/A     2/160/11
SO. S. ROSA ISLA           64 67  300/ 19/ 25 1013.1R   2/ 9
W. S. BARBARA CH           61 60  310/ 21/ 25 1013.5R   2/320/ 8
M. S. BARBARA CH           64 65  280/ 14/ 17 1012.5
S. MONICA BASIN            66 67  320/  8/  8 1012.9R   5/260/ 6
S PEDRO CHANNEL               69                N/A     2/160/12
DANA POINT                    72                N/A     2/180/13
CMP PENDLETON NS              71                N/A     2/220/18
OCEANSIDE OFFSHR              74                N/A     2/200/18
TORREY PINES OTR              74                N/A     2/190/13
LA JOLLA 1                 72 73  310/  5/  6 1013.9R
MISSION BAY BUOY              72                N/A     2/190/13
SAN DIEGO BAY                 76              1014.4R
POINT LOMA SOUTH              73                N/A     2/170/12

$$




USA.gov is the U.S. government's official web portal to all federal, state and local government web resources and services.